Weather History for Truth Or Consequences, NM

Change the Weather History Date:

Saturday, September 1, 2012

  Actual Average Record
Temperature  
Mean Temperature 77 °F -  
Max Temperature 93 °F 88 °F 95 °F (2011)
Min Temperature 63 °F 62 °F 55 °F (2004)
Cooling Degree Days 12    
Month to date cooling degree days  
Year to date cooling degree days  
Growing Degree Days 27 (Base 50)    
Moisture  
Dew Point 38 °F    
Average Humidity 26    
Maximum Humidity 37    
Minimum Humidity 14    
Precipitation  
Precipitation 0.00 in - 0.53 in (2007)
Month to date precipitation  
Year to date precipitation 2.21  
Sea Level Pressure  
Sea Level Pressure 29.88 in    
Wind  
Wind Speed 6 mph (SSW)    
Max Wind Speed 13 mph    
Max Gust Speed 18 mph    
Visibility 10 miles    
Events      
T = Trace of Precipitation, MM = Missing Value Source: NWS Daily Summary

Daily Weather History Graph

Daily Weather History Graph

Search for Another Location

Airport:

Trip Planner

Search our weather history database for the weather conditions in past years. The results will help you decide how hot, cold, wet, or windy it might be!

Date:

Astronomy

Sep. 01, 2012 Rise Set
Actual Time 6:43 AM MDT 7:33 PM MDT
Civil Twilight 6:18 AM MDT 7:58 PM MDT
Nautical Twilight 5:48 AM MDT 8:28 PM MDT
Astronomical Twilight 5:17 AM MDT 8:58 PM MDT
Moon 8:00 PM MDT (9/1) 7:47 AM MDT (9/1)
Length of Visible Light 13h 40m
Length of Day
12h 49m
Full, 98% of the Moon is Illuminated
Sep 1
Full
Sep 8
Last Quarter
Sep 15
New
Sep 22
First Quarter
Sep 29
Full

Hourly Weather History & Observations

Time (MDT) Temp. Dew Point Humidity Pressure Visibility Wind Dir Wind Speed Gust Speed Precip Events Conditions
12:53 AM 72.0 °F 41.0 °F 33% 29.87 in 10.0 mi SSE 4.6 mph - N/A   Clear
1:53 AM 70.0 °F 37.9 °F 31% 29.87 in 10.0 mi West 4.6 mph - N/A   Clear
2:53 AM 69.1 °F 37.0 °F 31% 29.87 in 10.0 mi WNW 5.8 mph - N/A   Clear
3:53 AM 66.0 °F 37.0 °F 34% 29.89 in 10.0 mi West 5.8 mph - N/A   Clear
4:53 AM 64.9 °F 37.0 °F 36% 29.89 in 10.0 mi WNW 6.9 mph - N/A   Clear
5:53 AM 64.9 °F 37.0 °F 36% 29.91 in 10.0 mi WNW 6.9 mph - N/A   Clear
6:53 AM 64.0 °F 37.0 °F 37% 29.93 in 10.0 mi WNW 9.2 mph - N/A   Clear
7:53 AM 69.1 °F 37.9 °F 32% 29.95 in 10.0 mi WNW 5.8 mph - N/A   Clear
8:53 AM 75.9 °F 39.0 °F 26% 29.95 in 10.0 mi WNW 4.6 mph - N/A   Clear
9:53 AM 80.1 °F 37.9 °F 22% 29.94 in 10.0 mi SE 4.6 mph - N/A   Clear
10:53 AM 82.9 °F 39.0 °F 21% 29.95 in 10.0 mi South 5.8 mph - N/A   Clear
11:53 AM 87.1 °F 37.9 °F 18% 29.93 in 10.0 mi South 8.1 mph - N/A   Clear
12:53 PM 89.1 °F 36.0 °F 15% 29.91 in 10.0 mi South 8.1 mph - N/A   Clear
1:53 PM 90.0 °F 36.0 °F 15% 29.89 in 10.0 mi SW 8.1 mph - N/A   Clear
2:53 PM 91.9 °F 36.0 °F 14% 29.86 in 10.0 mi East 9.2 mph - N/A   Clear
3:53 PM 91.9 °F 37.0 °F 15% 29.84 in 10.0 mi Variable 5.8 mph - N/A   Clear
4:53 PM 91.9 °F 37.9 °F 15% 29.83 in 10.0 mi ESE 6.9 mph - N/A   Clear
5:53 PM 91.9 °F 37.0 °F 15% 29.82 in 10.0 mi SE 12.7 mph 16.1 mph N/A   Clear
6:53 PM 90.0 °F 36.0 °F 15% 29.83 in 10.0 mi SE 8.1 mph - N/A   Clear
7:53 PM 84.9 °F 37.9 °F 19% 29.83 in 10.0 mi SSE 5.8 mph - N/A   Clear
8:53 PM 82.9 °F 39.0 °F 21% 29.84 in 10.0 mi South 3.5 mph - N/A   Clear
9:53 PM 81.0 °F 39.0 °F 22% 29.85 in 10.0 mi SSE 5.8 mph - N/A   Clear
10:53 PM 78.1 °F 39.0 °F 25% 29.85 in 10.0 mi WNW 4.6 mph - N/A   Clear
11:53 PM 73.9 °F 37.9 °F 27% 29.86 in 10.0 mi Calm Calm - N/A   Clear